"read_dt","SO2 (ppb)","flags","PMT voltage (V)","lamp voltage (V)","lamp intensity (Hz)","internal temp (C)","react chamber temp (C)","sample flow (l/min)","pres (mmHg)","SO2 bkg (ppb)","SO2 coefficient"
2013-08-23 00:00:00,9996E-5,5C000000,-0724,0940,10948,026.8,045.3,0.397,743.4,01.18,0.508
2013-08-23 00:01:00,1992E-4,5C000000,-0724,0941,11138,026.9,045.3,0.397,743.4,01.18,0.508
2013-08-23 00:02:00,1726E-4,5C000000,-0724,0940,11168,026.9,045.3,0.397,743.4,01.18,0.508
2013-08-23 00:03:00,8079E-5,5C000000,-0724,0941,11111,026.9,045.3,0.397,743.4,01.18,0.508
2013-08-23 00:04:00,1859E-4,5C000000,-0724,0941,11266,026.9,045.3,0.397,743.3,01.18,0.508
2013-08-23 00:05:00,1272E-4,5C000000,-0724,0939,11084,026.9,045.3,0.397,743.4,01.18,0.508
2013-08-23 00:06:00,6693E-5,5C000000,-0724,0941,11010,026.9,045.3,0.397,743.3,01.18,0.508
2013-08-23 00:07:00,4209E-5,5C000000,-0724,0940,11276,026.9,045.3,0.397,743.4,01.18,0.508
2013-08-23 00:08:00,1405E-4,5C000000,-0724,0940,11208,026.9,045.3,0.397,743.4,01.18,0.508
2013-08-23 00:09:00,1385E-4,5C000000,-0724,0939,11097,026.9,045.3,0.397,743.4,01.18,0.508
2013-08-23 00:10:00,2329E-4,5C000000,-0724,0939,11284,026.9,045.3,0.397,743.4,01.18,0.508
2013-08-23 00:11:00,1501E-4,5C000000,-0724,0940,11118,026.9,045.3,0.397,743.4,01.18,0.508
2013-08-23 00:12:00,1662E-4,5C000000,-0724,0940,11221,026.9,045.3,0.397,743.3,01.18,0.508
2013-08-23 00:13:00,1062E-4,5C000000,-0724,0941,11182,027.0,045.3,0.396,743.3,01.18,0.508
2013-08-23 00:14:00,1375E-4,5C000000,-0724,0939,10970,027.0,045.3,0.397,743.3,01.18,0.508
2013-08-23 00:15:00,8986E-5,5C000000,-0724,0940,11138,027.0,045.3,0.397,743.4,01.18,0.508
2013-08-23 00:16:00,1340E-4,5C000000,-0724,0940,11209,026.6,045.3,0.397,743.3,01.18,0.508
2013-08-23 00:17:00,7065E-5,5C000000,-0724,0938,11147,026.6,045.3,0.397,743.3,01.18,0.508
2013-08-23 00:18:00,2187E-4,5C000000,-0724,0939,11119,026.6,045.3,0.397,743.4,01.18,0.508
2013-08-23 00:19:00,5955E-5,5C000000,-0724,0940,11048,026.6,045.3,0.397,743.4,01.18,0.508
2013-08-23 00:20:00,1068E-4,5C000000,-0724,0940,11251,026.5,045.3,0.397,743.4,01.18,0.508
2013-08-23 00:21:00,1171E-4,5C000000,-0724,0939,11165,026.5,045.3,0.397,743.3,01.18,0.508
2013-08-23 00:22:00,1768E-4,5C000000,-0724,0940,11137,026.5,045.3,0.398,743.3,01.18,0.508
2013-08-23 00:23:00,1233E-4,5C000000,-0724,0939,11095,026.4,045.3,0.397,743.4,01.18,0.508
2013-08-23 00:24:00,1038E-4,5C000000,-0724,0939,11056,026.4,045.3,0.397,743.3,01.18,0.508
2013-08-23 00:25:00,1695E-4,5C000000,-0724,0939,11090,026.4,045.3,0.398,743.4,01.18,0.508
2013-08-23 00:26:00,8561E-5,5C000000,-0724,0938,11218,026.3,045.3,0.397,743.4,01.18,0.508
2013-08-23 00:27:00,9244E-5,5C000000,-0724,0939,11117,026.3,045.3,0.398,743.4,01.18,0.508
2013-08-23 00:28:00,1992E-4,5C000000,-0724,0939,11130,026.3,045.3,0.398,743.4,01.18,0.508
2013-08-23 00:29:00,1259E-4,5C000000,-0724,0939,11189,026.2,045.3,0.397,743.3,01.18,0.508
2013-08-23 00:30:00,7982E-5,5C000000,-0724,0940,10842,026.3,045.3,0.398,743.4,01.18,0.508
2013-08-23 00:31:00,1775E-4,5C000000,-0724,0940,11154,026.2,045.3,0.398,743.4,01.18,0.508
2013-08-23 00:32:00,1679E-4,5C000000,-0724,0938,11139,026.2,045.3,0.397,743.4,01.18,0.508
2013-08-23 00:33:00,1183E-4,5C000000,-0724,0939,10861,026.2,045.3,0.398,743.3,01.18,0.508
2013-08-23 00:34:00,1069E-4,5C000000,-0724,0939,11286,026.2,045.3,0.398,743.3,01.18,0.508
2013-08-23 00:35:00,1300E-4,5C000000,-0724,0939,11257,026.2,045.3,0.398,743.3,01.18,0.508
2013-08-23 00:36:00,1194E-4,5C000000,-0724,0938,10922,026.1,045.3,0.398,743.4,01.18,0.508
2013-08-23 00:37:00,2030E-4,5C000000,-0724,0940,11224,026.1,045.3,0.398,743.3,01.18,0.508
2013-08-23 00:38:00,1047E-4,5C000000,-0724,0940,11187,026.1,045.3,0.398,743.4,01.18,0.508
2013-08-23 00:39:00,1423E-4,5C000000,-0724,0939,11168,026.1,045.3,0.398,743.4,01.18,0.508
2013-08-23 00:40:00,9622E-5,5C000000,-0724,0939,11171,026.1,045.3,0.398,743.4,01.18,0.508
2013-08-23 00:41:00,3587E-5,5C000000,-0724,0939,11209,026.0,045.3,0.398,743.5,01.18,0.508
2013-08-23 00:42:00,6722E-5,5C000000,-0724,0938,11084,026.0,045.3,0.398,743.4,01.18,0.508
2013-08-23 00:43:00,9550E-5,5C000000,-0724,0939,11046,026.0,045.3,0.398,743.4,01.18,0.508
2013-08-23 00:44:00,2016E-4,5C000000,-0724,0940,11024,026.0,045.3,0.398,743.5,01.18,0.508
2013-08-23 00:45:00,1108E-4,5C000000,-0724,0939,11245,026.0,045.3,0.398,743.4,01.18,0.508
2013-08-23 00:46:00,1883E-4,5C000000,-0724,0939,11152,026.0,045.3,0.398,743.4,01.18,0.508
2013-08-23 00:47:00,9179E-5,5C000000,-0724,0940,10933,026.0,045.3,0.399,743.4,01.18,0.508
2013-08-23 00:48:00,9375E-5,5C000000,-0724,0939,11234,026.0,045.3,0.398,743.3,01.18,0.508
2013-08-23 00:49:00,1663E-4,5C000000,-0724,0938,11199,026.0,045.3,0.398,743.3,01.18,0.508
2013-08-23 00:50:00,1827E-4,5C000000,-0724,0939,11208,026.0,045.3,0.399,743.4,01.18,0.508
2013-08-23 00:51:00,1669E-4,5C000000,-0724,0937,11090,026.0,045.3,0.398,743.3,01.18,0.508
2013-08-23 00:52:00,1174E-4,5C000000,-0724,0939,11290,026.0,045.3,0.398,743.4,01.18,0.508
2013-08-23 00:53:00,1688E-4,5C000000,-0724,0938,11061,025.7,045.3,0.399,743.3,01.18,0.508
2013-08-23 00:54:00,1016E-4,5C000000,-0724,0936,11077,025.5,045.3,0.398,743.4,01.18,0.508
2013-08-23 00:55:00,1317E-4,5C000000,-0724,0938,11268,025.2,045.3,0.398,743.4,01.18,0.508
2013-08-23 00:56:00,1545E-4,5C000000,-0724,0937,11308,025.1,045.2,0.399,743.3,01.18,0.508
2013-08-23 00:57:00,7118E-5,5C000000,-0724,0937,11222,025.1,045.3,0.399,743.4,01.18,0.508
2013-08-23 00:58:00,1216E-4,5C000000,-0724,0937,11224,025.0,045.2,0.399,743.4,01.18,0.508
2013-08-23 00:59:00,2440E-4,5C000000,-0724,0935,11088,025.1,045.3,0.399,743.4,01.18,0.508
2013-08-23 01:00:00,1730E-4,5C000000,-0724,0937,11069,025.2,045.3,0.400,743.4,01.18,0.508
2013-08-23 01:01:00,1555E-4,5C000000,-0724,0937,10930,025.3,045.3,0.400,743.4,01.18,0.508
2013-08-23 01:02:00,1256E-4,5C000000,-0724,0938,11262,025.4,045.3,0.400,743.3,01.18,0.508
2013-08-23 01:03:00,7893E-5,5C000000,-0724,0937,11246,025.5,045.3,0.400,743.3,01.18,0.508
2013-08-23 01:04:00,1572E-4,5C000000,-0724,0937,11254,025.5,045.3,0.399,743.3,01.18,0.508
2013-08-23 01:05:00,8539E-5,5C000000,-0724,0938,11051,025.6,045.3,0.399,743.3,01.18,0.508
2013-08-23 01:06:00,5693E-5,5C000000,-0724,0937,10928,025.6,045.3,0.399,743.3,01.18,0.508
2013-08-23 01:07:00,7446E-5,5C000000,-0724,0938,11088,025.7,045.3,0.399,743.3,01.18,0.508
2013-08-23 01:08:00,1421E-4,5C000000,-0724,0938,11134,025.7,045.3,0.399,743.3,01.18,0.508
2013-08-23 01:09:00,1288E-4,5C000000,-0724,0937,11173,025.8,045.3,0.399,743.3,01.18,0.508
2013-08-23 01:10:00,2388E-4,5C000000,-0724,0937,11114,025.8,045.3,0.399,743.3,01.18,0.508
2013-08-23 01:11:00,1780E-4,5C000000,-0724,0937,11031,025.8,045.3,0.399,743.3,01.18,0.508
2013-08-23 01:12:00,1879E-4,5C000000,-0724,0939,11269,025.9,045.3,0.399,743.3,01.18,0.508
2013-08-23 01:13:00,7341E-5,5C000000,-0724,0939,11088,025.9,045.3,0.399,743.2,01.18,0.508
2013-08-23 01:14:00,1525E-4,5C000000,-0724,0939,10993,025.9,045.3,0.398,743.2,01.18,0.508
2013-08-23 01:15:00,1795E-4,5C000000,-0724,0937,11190,025.9,045.3,0.398,743.2,01.18,0.508
2013-08-23 01:16:00,1642E-4,5C000000,-0724,0938,11095,026.0,045.3,0.399,743.2,01.18,0.508
2013-08-23 01:17:00,2075E-4,5C000000,-0724,0938,11164,026.0,045.3,0.398,743.3,01.18,0.508
2013-08-23 01:18:00,1679E-4,5C000000,-0724,0939,10937,026.0,045.3,0.398,743.2,01.18,0.508
2013-08-23 01:19:00,1433E-4,5C000000,-0724,0939,11208,026.1,045.3,0.399,743.2,01.18,0.508
2013-08-23 01:20:00,9867E-5,5C000000,-0724,0939,11041,026.0,045.3,0.398,743.3,01.18,0.508
2013-08-23 01:21:00,2826E-4,5C000000,-0724,0939,11121,026.1,045.3,0.399,743.2,01.18,0.508
2013-08-23 01:22:00,1043E-4,5C000000,-0724,0939,11369,026.1,045.3,0.398,743.3,01.18,0.508
2013-08-23 01:23:00,1218E-4,5C000000,-0724,0938,10995,026.1,045.3,0.398,743.2,01.18,0.508
2013-08-23 01:24:00,8056E-5,5C000000,-0724,0939,10905,026.1,045.3,0.399,743.2,01.18,0.508
2013-08-23 01:25:00,1398E-4,5C000000,-0724,0938,10981,026.2,045.3,0.398,743.2,01.18,0.508
2013-08-23 01:26:00,1681E-4,5C000000,-0724,0940,11089,026.2,045.3,0.398,743.2,01.18,0.508
2013-08-23 01:27:00,9205E-5,5C000000,-0724,0938,11203,026.2,045.3,0.398,743.3,01.18,0.508
2013-08-23 01:28:00,6646E-5,5C000000,-0724,0939,11117,026.2,045.3,0.398,743.2,01.18,0.508
2013-08-23 01:29:00,1300E-4,5C000000,-0724,0938,11108,026.2,045.3,0.398,743.2,01.18,0.508
2013-08-23 01:30:00,1550E-4,5C000000,-0724,0939,11124,026.2,045.3,0.398,743.2,01.18,0.508
2013-08-23 01:31:00,1582E-4,5C000000,-0724,0939,11043,026.2,045.3,0.398,743.2,01.18,0.508
2013-08-23 01:32:00,1111E-4,5C000000,-0724,0938,11050,026.2,045.3,0.398,743.2,01.18,0.508
2013-08-23 01:33:00,8242E-6,5C000000,-0724,0939,11077,026.2,045.3,0.398,743.2,01.18,0.508
2013-08-23 01:34:00,1683E-4,5C000000,-0724,0940,11043,026.2,045.3,0.398,743.2,01.18,0.508
2013-08-23 01:35:00,9264E-5,5C000000,-0724,0939,11277,026.2,045.3,0.398,743.2,01.18,0.508
2013-08-23 01:36:00,1010E-4,5C000000,-0724,0938,10855,026.2,045.3,0.397,743.2,01.18,0.508
2013-08-23 01:37:00,1807E-4,5C000000,-0724,0939,11132,026.2,045.3,0.398,743.2,01.18,0.508
2013-08-23 01:38:00,1762E-4,5C000000,-0724,0938,11170,026.2,045.3,0.398,743.2,01.18,0.508
2013-08-23 01:39:00,1273E-4,5C000000,-0724,0939,11226,026.3,045.3,0.398,743.2,01.18,0.508
2013-08-23 01:40:00,9337E-5,5C000000,-0724,0938,11113,026.3,045.3,0.398,743.1,01.18,0.508
2013-08-23 01:41:00,1246E-4,5C000000,-0724,0939,11226,026.3,045.3,0.397,743.1,01.18,0.508
2013-08-23 01:42:00,1038E-4,5C000000,-0724,0939,11258,026.3,045.3,0.398,743.2,01.18,0.508
2013-08-23 01:43:00,1584E-4,5C000000,-0724,0939,11085,026.3,045.3,0.398,743.1,01.18,0.508
2013-08-23 01:44:00,1378E-4,5C000000,-0724,0939,11216,026.3,045.3,0.398,743.1,01.18,0.508
2013-08-23 01:45:00,1321E-4,5C000000,-0724,0939,11153,026.3,045.3,0.398,743.1,01.18,0.508
2013-08-23 01:46:00,1124E-4,5C000000,-0724,0940,11237,026.3,045.3,0.397,743.2,01.18,0.508
2013-08-23 01:47:00,1573E-4,5C000000,-0724,0939,11230,026.3,045.3,0.398,743.1,01.18,0.508
2013-08-23 01:48:00,1041E-4,5C000000,-0724,0938,11067,026.3,045.3,0.397,743.2,01.18,0.508
2013-08-23 01:49:00,1176E-4,5C000000,-0724,0939,11125,026.3,045.3,0.398,743.2,01.18,0.508
2013-08-23 01:50:00,1421E-4,5C000000,-0724,0939,11200,026.3,045.3,0.398,743.2,01.18,0.508
2013-08-23 01:51:00,1067E-4,5C000000,-0724,0939,10942,026.3,045.3,0.397,743.1,01.18,0.508
2013-08-23 01:52:00,2077E-4,5C000000,-0724,0937,11191,026.4,045.3,0.398,743.1,01.18,0.508
2013-08-23 01:53:00,1170E-4,5C000000,-0724,0939,11058,026.3,045.3,0.398,743.1,01.18,0.508
2013-08-23 01:54:00,1116E-4,5C000000,-0724,0939,11074,026.3,045.3,0.398,743.1,01.18,0.508
2013-08-23 01:55:00,1192E-4,5C000000,-0724,0939,11143,026.3,045.3,0.397,743.1,01.18,0.508
2013-08-23 01:56:00,1751E-4,5C000000,-0724,0939,10960,026.4,045.3,0.398,743.1,01.18,0.508
2013-08-23 01:57:00,1222E-4,5C000000,-0724,0938,11222,026.4,045.3,0.398,743.1,01.18,0.508
2013-08-23 01:58:00,1151E-4,5C000000,-0724,0939,10985,026.4,045.3,0.397,743.1,01.18,0.508
2013-08-23 01:59:00,2596E-4,5C000000,-0724,0939,10829,026.4,045.3,0.398,743.1,01.18,0.508
2013-08-23 02:00:00,1455E-4,5C000000,-0724,0939,11195,026.4,045.3,0.398,743.0,01.18,0.508
2013-08-23 02:01:00,1534E-4,5C000000,-0724,0939,11258,026.3,045.3,0.397,743.1,01.18,0.508
2013-08-23 02:02:00,1339E-4,5C000000,-0724,0940,11093,026.4,045.3,0.398,743.1,01.18,0.508
2013-08-23 02:03:00,2036E-4,5C000000,-0724,0939,11137,026.4,045.3,0.397,743.1,01.18,0.508
2013-08-23 02:04:00,1990E-4,5C000000,-0724,0939,11145,026.4,045.3,0.398,743.1,01.18,0.508
2013-08-23 02:05:00,1983E-4,5C000000,-0724,0940,10987,026.4,045.3,0.398,743.0,01.18,0.508
2013-08-23 02:06:00,1955E-4,5C000000,-0724,0939,11082,026.4,045.3,0.397,743.1,01.18,0.508
2013-08-23 02:07:00,2118E-4,5C000000,-0724,0938,11206,026.4,045.3,0.398,743.0,01.18,0.508
2013-08-23 02:08:00,1549E-4,5C000000,-0724,0938,11201,026.4,045.3,0.397,743.0,01.18,0.508
2013-08-23 02:09:00,1259E-4,5C000000,-0724,0939,11041,026.4,045.3,0.398,743.0,01.18,0.508
2013-08-23 02:10:00,1847E-4,5C000000,-0724,0938,11123,026.4,045.3,0.398,743.1,01.18,0.508
2013-08-23 02:11:00,1952E-4,5C000000,-0724,0939,11057,026.4,045.3,0.397,743.0,01.18,0.508
2013-08-23 02:12:00,2016E-4,5C000000,-0724,0939,11087,026.4,045.3,0.398,743.0,01.18,0.508
2013-08-23 02:13:00,1014E-4,5C000000,-0724,0938,11234,026.4,045.3,0.398,743.0,01.18,0.508
2013-08-23 02:14:00,1087E-4,5C000000,-0724,0939,11174,026.4,045.3,0.397,743.0,01.18,0.508
2013-08-23 02:15:00,1892E-4,5C000000,-0724,0939,11169,026.4,045.3,0.398,743.1,01.18,0.508
2013-08-23 02:16:00,1352E-4,5C000000,-0724,0940,11065,026.4,045.3,0.397,743.0,01.18,0.508
2013-08-23 02:17:00,1384E-4,5C000000,-0724,0939,11234,026.4,045.3,0.397,743.0,01.18,0.508
2013-08-23 02:18:00,1917E-4,5C000000,-0724,0938,11004,026.4,045.3,0.398,743.0,01.18,0.508
2013-08-23 02:19:00,9695E-5,5C000000,-0724,0939,11129,026.4,045.3,0.397,743.0,01.18,0.508
2013-08-23 02:20:00,7363E-5,5C000000,-0724,0939,11057,026.4,045.3,0.398,743.0,01.18,0.508
2013-08-23 02:21:00,1351E-4,5C000000,-0724,0940,11187,026.4,045.3,0.398,743.0,01.18,0.508
2013-08-23 02:22:00,2025E-4,5C000000,-0724,0939,11043,026.4,045.3,0.397,743.0,01.18,0.508
2013-08-23 02:23:00,1243E-4,5C000000,-0724,0939,11068,026.4,045.3,0.398,743.0,01.18,0.508
2013-08-23 02:24:00,1369E-4,5C000000,-0724,0939,11116,026.4,045.3,0.397,743.0,01.18,0.508
2013-08-23 02:25:00,5921E-5,5C000000,-0724,0940,11006,026.5,045.3,0.397,743.0,01.18,0.508
2013-08-23 02:26:00,1632E-4,5C000000,-0724,0940,11248,026.4,045.3,0.398,743.0,01.18,0.508
2013-08-23 02:27:00,1378E-4,5C000000,-0724,0939,11171,026.4,045.3,0.397,742.9,01.18,0.508
2013-08-23 02:28:00,1143E-4,5C000000,-0724,0940,11106,026.4,045.3,0.398,742.9,01.18,0.508
2013-08-23 02:29:00,8341E-5,5C000000,-0724,0939,11035,026.4,045.3,0.398,742.9,01.18,0.508
2013-08-23 02:30:00,1484E-4,5C000000,-0724,0939,11148,026.5,045.3,0.397,742.9,01.18,0.508
2013-08-23 02:31:00,1590E-4,5C000000,-0724,0939,11033,026.5,045.3,0.398,743.0,01.18,0.508
2013-08-23 02:32:00,6756E-5,5C000000,-0724,0940,11202,026.5,045.3,0.397,742.9,01.18,0.508
2013-08-23 02:33:00,2061E-4,5C000000,-0724,0939,11310,026.5,045.3,0.397,742.9,01.18,0.508
2013-08-23 02:34:00,2215E-4,5C000000,-0724,0938,11198,026.5,045.3,0.398,742.9,01.18,0.508
2013-08-23 02:35:00,1793E-4,5C000000,-0724,0938,11097,026.5,045.3,0.397,742.9,01.18,0.508
2013-08-23 02:36:00,4360E-5,5C000000,-0724,0939,11098,026.5,045.3,0.397,742.9,01.18,0.508
2013-08-23 02:37:00,2018E-4,5C000000,-0724,0938,11100,026.5,045.3,0.398,742.8,01.18,0.508
2013-08-23 02:38:00,2133E-4,5C000000,-0724,0939,11106,026.5,045.3,0.397,742.9,01.18,0.508
2013-08-23 02:39:00,1348E-4,5C000000,-0724,0939,11159,026.5,045.3,0.397,742.9,01.18,0.508
2013-08-23 02:40:00,2506E-4,5C000000,-0724,0938,11124,026.5,045.3,0.398,742.9,01.18,0.508
2013-08-23 02:41:00,1364E-4,5C000000,-0724,0939,11103,026.5,045.3,0.397,742.8,01.18,0.508
2013-08-23 02:42:00,1121E-4,5C000000,-0724,0939,11100,026.5,045.3,0.398,742.9,01.18,0.508
2013-08-23 02:43:00,1191E-4,5C000000,-0724,0939,11201,026.5,045.3,0.398,742.9,01.18,0.508
2013-08-23 02:44:00,6645E-5,5C000000,-0724,0938,11094,026.5,045.3,0.397,742.9,01.18,0.508
2013-08-23 02:45:00,1672E-4,5C000000,-0724,0940,11206,026.5,045.3,0.398,742.8,01.18,0.508
2013-08-23 02:46:00,1047E-4,5C000000,-0724,0940,11214,026.5,045.3,0.397,742.9,01.18,0.508
2013-08-23 02:47:00,9849E-5,5C000000,-0724,0939,11219,026.5,045.3,0.397,742.8,01.18,0.508
2013-08-23 02:48:00,1925E-4,5C000000,-0724,0939,10981,026.5,045.3,0.398,742.9,01.18,0.508
2013-08-23 02:49:00,7142E-5,5C000000,-0724,0939,11211,026.5,045.3,0.397,742.8,01.18,0.508
2013-08-23 02:50:00,1364E-4,5C000000,-0724,0939,11061,026.5,045.3,0.397,742.8,01.18,0.508
2013-08-23 02:51:00,9098E-5,5C000000,-0724,0940,11239,026.5,045.3,0.397,742.7,01.18,0.508
2013-08-23 02:52:00,1759E-4,5C000000,-0724,0939,10974,026.5,045.3,0.397,742.8,01.18,0.508
2013-08-23 02:53:00,1184E-4,5C000000,-0724,0939,11156,026.5,045.3,0.398,742.8,01.18,0.508
2013-08-23 02:54:00,1628E-4,5C000000,-0724,0940,11225,026.5,045.3,0.397,742.8,01.18,0.508
2013-08-23 02:55:00,8675E-5,5C000000,-0724,0939,11097,026.6,045.3,0.397,742.8,01.18,0.508
2013-08-23 02:56:00,1196E-4,5C000000,-0724,0939,11129,026.5,045.3,0.398,742.8,01.18,0.508
2013-08-23 02:57:00,1616E-4,5C000000,-0724,0940,11038,026.5,045.3,0.397,742.8,01.18,0.508
2013-08-23 02:58:00,1714E-4,5C000000,-0724,0939,11185,026.6,045.3,0.397,742.7,01.18,0.508
2013-08-23 02:59:00,1117E-4,5C000000,-0724,0939,11267,026.5,045.3,0.397,742.8,01.18,0.508
2013-08-23 03:00:00,1038E-4,5C000000,-0724,0940,11105,026.6,045.3,0.397,742.8,01.18,0.508
2013-08-23 03:01:00,1419E-4,5C000000,-0724,0939,11087,026.5,045.3,0.397,742.8,01.18,0.508
2013-08-23 03:02:00,1700E-4,5C000000,-0724,0939,11248,026.6,045.3,0.398,742.8,01.18,0.508
2013-08-23 03:03:00,1051E-4,5C000000,-0724,0940,11065,026.6,045.3,0.397,742.8,01.18,0.508
2013-08-23 03:04:00,1804E-4,5C000000,-0724,0939,11133,026.6,045.3,0.397,742.7,01.18,0.508
2013-08-23 03:05:00,1628E-4,5C000000,-0724,0939,11247,026.6,045.3,0.398,742.8,01.18,0.508
2013-08-23 03:06:00,1656E-4,5C000000,-0724,0939,11103,026.6,045.3,0.397,742.7,01.18,0.508
2013-08-23 03:07:00,1521E-4,5C000000,-0724,0939,11110,026.6,045.3,0.397,742.7,01.18,0.508
2013-08-23 03:08:00,9382E-5,5C000000,-0724,0940,10956,026.6,045.3,0.397,742.7,01.18,0.508
2013-08-23 03:09:00,1566E-4,5C000000,-0724,0939,11199,026.6,045.3,0.397,742.7,01.18,0.508
2013-08-23 03:10:00,1425E-4,5C000000,-0724,0940,11134,026.6,045.3,0.397,742.7,01.18,0.508
2013-08-23 03:11:00,1257E-4,5C000000,-0724,0940,10937,026.6,045.3,0.397,742.7,01.18,0.508
2013-08-23 03:12:00,1402E-4,5C000000,-0724,0939,11115,026.6,045.3,0.397,742.7,01.18,0.508
2013-08-23 03:13:00,1358E-4,5C000000,-0724,0940,11223,026.6,045.3,0.397,742.6,01.18,0.508
2013-08-23 03:14:00,1824E-4,5C000000,-0724,0939,11061,026.6,045.3,0.397,742.6,01.18,0.508
2013-08-23 03:15:00,1272E-4,5C000000,-0724,0939,11177,026.6,045.3,0.397,742.7,01.18,0.508
2013-08-23 03:16:00,1172E-4,5C000000,-0724,0939,11135,026.6,045.3,0.397,742.6,01.18,0.508
2013-08-23 03:17:00,9393E-5,5C000000,-0724,0939,11079,026.6,045.3,0.397,742.7,01.18,0.508
2013-08-23 03:18:00,2077E-4,5C000000,-0724,0940,11129,026.6,045.3,0.397,742.6,01.18,0.508
2013-08-23 03:19:00,2002E-4,5C000000,-0724,0940,11183,026.6,045.3,0.397,742.6,01.18,0.508
2013-08-23 03:20:00,1142E-4,5C000000,-0724,0939,10861,026.6,045.3,0.397,742.7,01.18,0.508
2013-08-23 03:21:00,6100E-5,5C000000,-0724,0939,11152,026.6,045.3,0.397,742.6,01.18,0.508
2013-08-23 03:22:00,2014E-4,5C000000,-0724,0940,11155,026.6,045.3,0.397,742.7,01.18,0.508
2013-08-23 03:23:00,3469E-5,5C000000,-0724,0939,11095,026.6,045.3,0.397,742.6,01.18,0.508
2013-08-23 03:24:00,8317E-5,5C000000,-0724,0940,11115,026.6,045.3,0.397,742.6,01.18,0.508
2013-08-23 03:25:00,2324E-4,5C000000,-0724,0939,11324,026.6,045.3,0.397,742.6,01.18,0.508
2013-08-23 03:26:00,1415E-4,5C000000,-0724,0939,11006,026.6,045.3,0.397,742.6,01.18,0.508
2013-08-23 03:27:00,1059E-4,5C000000,-0724,0940,11118,026.6,045.3,0.397,742.5,01.18,0.508
2013-08-23 03:28:00,1927E-4,5C000000,-0724,0940,11145,026.6,045.3,0.397,742.6,01.18,0.508
2013-08-23 03:29:00,2012E-4,5C000000,-0724,0940,11132,026.6,045.3,0.397,742.6,01.18,0.508
2013-08-23 03:30:00,2553E-4,5C000000,-0724,0939,11179,026.7,045.3,0.397,742.6,01.18,0.508
2013-08-23 03:31:00,1779E-4,5C000000,-0724,0939,11094,026.7,045.3,0.397,742.6,01.18,0.508
2013-08-23 03:32:00,1308E-4,5C000000,-0724,0940,11075,026.7,045.3,0.397,742.7,01.18,0.508
2013-08-23 03:33:00,1558E-4,5C000000,-0724,0939,11068,026.7,045.3,0.397,742.5,01.18,0.508
2013-08-23 03:34:00,2075E-4,5C000000,-0724,0940,11028,026.7,045.3,0.397,742.6,01.18,0.508
2013-08-23 03:35:00,1250E-4,5C000000,-0724,0939,11148,026.7,045.3,0.397,742.5,01.18,0.508
2013-08-23 03:36:00,5294E-5,5C000000,-0724,0939,11022,026.7,045.3,0.397,742.6,01.18,0.508
2013-08-23 03:37:00,1657E-4,5C000000,-0724,0940,11153,026.7,045.3,0.397,742.6,01.18,0.508
2013-08-23 03:38:00,1579E-4,5C000000,-0724,0939,11192,026.7,045.3,0.397,742.6,01.18,0.508
2013-08-23 03:39:00,1061E-4,5C000000,-0724,0939,11214,026.7,045.3,0.396,742.5,01.18,0.508
2013-08-23 03:40:00,1645E-4,5C000000,-0724,0939,11097,026.7,045.3,0.397,742.5,01.18,0.508
2013-08-23 03:41:00,1719E-4,5C000000,-0724,0938,11078,026.7,045.3,0.397,742.5,01.18,0.508
2013-08-23 03:42:00,1608E-4,5C000000,-0724,0939,11169,026.7,045.3,0.396,742.5,01.18,0.508
2013-08-23 03:43:00,1008E-4,5C000000,-0724,0938,11082,026.7,045.3,0.397,742.6,01.18,0.508
2013-08-23 03:44:00,1426E-4,5C000000,-0724,0939,11121,026.7,045.3,0.397,742.5,01.18,0.508
2013-08-23 03:45:00,2079E-4,5C000000,-0724,0939,11171,026.7,045.3,0.396,742.5,01.18,0.508
2013-08-23 03:46:00,6975E-5,5C000000,-0724,0940,11051,026.7,045.3,0.397,742.5,01.18,0.508
2013-08-23 03:47:00,1452E-4,5C000000,-0724,0939,11225,026.8,045.3,0.397,742.4,01.18,0.508
2013-08-23 03:48:00,1333E-4,5C000000,-0724,0938,11088,026.7,045.3,0.396,742.5,01.18,0.508
2013-08-23 03:49:00,9972E-5,5C000000,-0724,0939,11318,026.8,045.3,0.397,742.5,01.18,0.508
2013-08-23 03:50:00,1395E-4,5C000000,-0724,0939,11072,026.8,045.3,0.397,742.5,01.18,0.508
2013-08-23 03:51:00,4481E-5,5C000000,-0724,0940,11000,026.8,045.3,0.396,742.5,01.18,0.508
2013-08-23 03:52:00,1071E-4,5C000000,-0724,0940,11260,026.7,045.3,0.397,742.5,01.18,0.508
2013-08-23 03:53:00,1840E-4,5C000000,-0724,0941,11239,026.8,045.3,0.397,742.5,01.18,0.508
2013-08-23 03:54:00,1394E-4,5C000000,-0724,0939,11086,026.8,045.3,0.396,742.5,01.18,0.508
2013-08-23 03:55:00,7947E-5,5C000000,-0724,0939,11135,026.8,045.3,0.397,742.5,01.18,0.508
2013-08-23 03:56:00,1511E-4,5C000000,-0724,0938,11206,026.8,045.3,0.397,742.5,01.18,0.508
2013-08-23 03:57:00,2288E-4,5C000000,-0724,0940,11215,026.8,045.3,0.396,742.4,01.18,0.508
2013-08-23 03:58:00,8297E-5,5C000000,-0724,0939,11046,026.8,045.3,0.397,742.4,01.18,0.508
2013-08-23 03:59:00,2123E-4,5C000000,-0724,0939,11196,026.8,045.3,0.397,742.3,01.18,0.508
2013-08-23 04:00:00,8841E-5,5C000000,-0724,0939,11061,026.8,045.3,0.396,742.5,01.18,0.508
2013-08-23 04:01:00,1438E-4,5C000000,-0724,0940,11031,026.8,045.3,0.397,742.4,01.18,0.508
2013-08-23 04:02:00,2511E-4,5C000000,-0724,0939,11107,026.8,045.3,0.397,742.4,01.18,0.508
2013-08-23 04:03:00,1176E-4,5C000000,-0724,0938,11140,026.8,045.3,0.396,742.4,01.18,0.508
2013-08-23 04:04:00,1301E-4,5C000000,-0724,0939,11145,026.8,045.3,0.397,742.4,01.18,0.508
2013-08-23 04:05:00,1734E-4,5C000000,-0724,0939,11203,026.8,045.3,0.397,742.4,01.18,0.508
2013-08-23 04:06:00,1509E-4,5C000000,-0724,0940,11139,026.8,045.3,0.396,742.4,01.18,0.508
2013-08-23 04:07:00,1721E-4,5C000000,-0724,0940,11181,026.8,045.3,0.397,742.4,01.18,0.508
2013-08-23 04:08:00,3836E-5,5C000000,-0724,0939,11243,026.8,045.3,0.397,742.4,01.18,0.508
2013-08-23 04:09:00,1600E-4,5C000000,-0724,0938,11110,026.8,045.3,0.396,742.4,01.18,0.508
2013-08-23 04:10:00,1853E-4,5C000000,-0724,0939,11051,026.9,045.3,0.397,742.4,01.18,0.508
2013-08-23 04:11:00,1155E-4,5C000000,-0724,0938,11128,026.9,045.3,0.397,742.4,01.18,0.508
2013-08-23 04:12:00,1836E-4,5C000000,-0724,0939,11144,026.9,045.3,0.396,742.4,01.18,0.508
2013-08-23 04:13:00,1451E-4,5C000000,-0724,0939,11083,026.9,045.3,0.397,742.3,01.18,0.508
2013-08-23 04:14:00,1284E-4,5C000000,-0724,0939,11144,026.9,045.3,0.396,742.4,01.18,0.508
2013-08-23 04:15:00,4427E-5,5C000000,-0724,0941,11354,026.9,045.3,0.396,742.4,01.18,0.508
2013-08-23 04:16:00,7415E-5,5C000000,-0724,0940,11167,026.9,045.3,0.397,742.3,01.18,0.508
2013-08-23 04:17:00,1684E-4,5C000000,-0724,0940,11041,026.9,045.3,0.397,742.3,01.18,0.508
2013-08-23 04:18:00,1230E-4,5C000000,-0724,0939,11085,026.9,045.3,0.396,742.3,01.18,0.508
2013-08-23 04:19:00,1380E-4,5C000000,-0724,0939,10969,026.9,045.3,0.396,742.3,01.18,0.508
2013-08-23 04:20:00,1705E-4,5C000000,-0724,0939,11165,026.9,045.3,0.397,742.3,01.18,0.508